I2HLY-4 Weather Reports


time (UTC)temp
C
wind
direction
speed
KPH
gust
KPH
rain 1hr
cm
rain 24hr
cm
rain mn
cm
humidity
%
barometer
mb
20260902174720 21 161 0.0 0.0 0.00 0.00 0.00 77 1021.9
20260902173212 22 288 0.0 1.6 0.00 0.00 0.00 72 1021.7
20260902171719 22 288 0.0 4.8 0.00 0.00 0.00 72 1021.7
20260902170219 22 338 3.2 8.0 0.00 0.00 0.00 69 1021.7
20260902164731 23 333 0.0 6.4 0.00 0.00 0.00 68 1021.6
20260902163223 23 194 1.6 8.0 0.00 0.00 0.00 67 1021.6
20260902161718 23 150 4.8 11.3 0.00 0.00 0.00 65 1021.6
20260902160227 24 169 3.2 14.5 0.00 0.00 0.00 63 1021.8
20260902154719 24 174 4.8 11.3 0.00 0.00 0.00 63 1021.6
20260902153217 24 277 3.2 12.9 0.00 0.00 0.00 63 1021.6
20260902151723 25 221 4.8 12.9 0.00 0.00 0.00 62 1021.6
20260902150218 25 159 6.4 11.3 0.00 0.00 0.00 62 1021.9
20260902144731 24 180 6.4 14.5 0.00 0.00 0.00 63 1022.0
20260902143223 24 171 4.8 11.3 0.00 0.00 0.00 65 1022.0
20260902141722 24 163 3.2 8.0 0.00 0.00 0.00 66 1022.2
20260902140225 23 172 3.2 11.3 0.00 0.00 0.00 67 1022.4
20260902134721 23 163 4.8 12.9 0.00 0.00 0.00 66 1022.4
20260902133229 24 213 3.2 8.0 0.00 0.00 0.00 66 1022.6
20260902131714 23 167 3.2 11.3 0.00 0.00 0.00 65 1022.7
20260902130219 23 130 3.2 12.9 0.00 0.00 0.00 69 1022.9
20260902124719 23 164 4.8 12.9 0.00 0.00 0.00 68 1023.0
20260902123219 23 146 3.2 11.3 0.00 0.00 0.00 68 1023.2
20260902121722 23 210 4.8 17.7 0.00 0.00 0.00 67 1023.2
20260902120226 22 221 3.2 12.9 0.00 0.00 0.00 68 1023.3
20260902114721 23 185 3.2 19.3 0.00 0.00 0.00 67 1023.2
20260902113225 23 230 8.0 14.5 0.00 0.00 0.00 67 1023.4
20260902111723 22 152 4.8 12.9 0.00 0.00 0.00 69 1023.4
20260902110216 23 190 6.4 16.1 0.00 0.00 0.00 67 1023.4
20260902104721 23 210 3.2 11.3 0.00 0.00 0.00 68 1023.6
20260902103225 23 217 6.4 16.1 0.00 0.00 0.00 68 1023.9
20260902101728 23 219 8.0 14.5 0.00 0.00 0.00 68 1023.9
20260902100221 22 194 4.8 11.3 0.00 0.00 0.00 71 1024.1
20260902094731 22 168 4.8 9.7 0.00 0.00 0.00 73 1024.0
20260902093213 21 279 3.2 8.0 0.00 0.00 0.00 76 1024.1
20260902091727 21 240 3.2 6.4 0.00 0.00 0.00 76 1024.0
20260902090216 20 190 1.6 6.4 0.00 0.00 0.00 79 1024.1
20260902084729 20 265 3.2 6.4 0.00 0.00 0.00 78 1024.2
20260902083224 20 241 1.6 4.8 0.00 0.00 0.00 80 1024.1
20260902081732 19 269 0.0 0.0 0.00 0.00 0.00 84 1023.9
20260902080228 19 267 1.6 6.4 0.00 0.00 0.00 83 1023.8
20260902074717 18 281 3.2 6.4 0.00 0.00 0.00 83 1023.8
20260902073218 18 199 0.0 0.0 0.00 0.00 0.00 87 1023.8
20260902071723 17 121 0.0 0.0 0.00 0.00 0.00 91 1023.6
20260902070228 16 112 0.0 0.0 0.00 0.00 0.00 91 1023.5
20260902064725 16 81 0.0 0.0 0.00 0.00 0.00 91 1023.5
20260902063231 16 61 0.0 1.6 0.00 0.00 0.00 91 1023.5
20260902061727 16 56 3.2 4.8 0.00 0.00 0.00 91 1023.4
20260902060215 16 61 3.2 4.8 0.00 0.00 0.00 91 1023.5
20260902054715 16 68 3.2 4.8 0.00 0.00 0.00 93 1023.5
20260902053228 16 83 3.2 4.8 0.00 0.00 0.00 93 1023.2
20260902051723 16 74 3.2 4.8 0.00 0.00 0.00 93 1023.1
20260902050218 16 80 1.6 3.2 0.00 0.00 0.00 93 1023.2
20260902044720 16 101 1.6 4.8 0.00 0.00 0.00 93 1023.1
20260902043219 16 81 0.0 3.2 0.00 0.00 0.00 92 1023.0
20260902041712 16 84 1.6 6.4 0.00 0.00 0.00 92 1022.9
20260902040229 16 83 3.2 4.8 0.00 0.00 0.00 91 1022.8
20260902034717 16 111 3.2 6.4 0.00 0.00 0.00 90 1023.0
20260902033213 16 82 3.2 4.8 0.00 0.00 0.00 90 1023.0
20260902031731 16 69 3.2 4.8 0.00 0.00 0.00 90 1023.0
20260902030219 16 72 3.2 6.4 0.00 0.00 0.00 89 1023.0
20260902024722 16 34 3.2 9.7 0.00 0.00 0.00 90 1023.1
20260902023221 16 52 3.2 9.7 0.00 0.00 0.00 90 1023.0
20260902021717 16 57 4.8 6.4 0.00 0.00 0.00 90 1023.0
20260902020226 16 84 1.6 6.4 0.00 0.00 0.00 89 1023.0
20260902014725 16 78 3.2 8.0 0.00 0.00 0.00 88 1023.0
20260902013231 16 61 4.8 9.7 0.00 0.00 0.00 89 1023.1
20260902011718 16 74 3.2 4.8 0.00 0.00 0.00 91 1023.1
20260902010216 16 91 1.6 6.4 0.00 0.00 0.00 91 1023.2
20260902004716 16 88 3.2 4.8 0.00 0.00 0.00 91 1023.2
20260902003224 16 76 1.6 6.4 0.00 0.00 0.00 90 1023.2
20260902001720 16 77 3.2 4.8 0.00 0.00 0.00 89 1023.2
20260901234718 16 69 3.2 6.4 0.00 0.00 0.00 90 1023.3
20260901233216 16 80 1.6 3.2 0.00 0.00 0.00 90 1023.3
20260901231726 16 67 4.8 4.8 0.00 0.00 0.00 90 1023.2
20260901230223 16 70 3.2 4.8 0.00 0.00 0.00 89 1023.2
20260901224728 16 87 3.2 4.8 0.00 0.00 0.00 89 1023.3
20260901223216 17 67 3.2 4.8 0.00 0.00 0.00 88 1023.2
20260901221729 17 109 3.2 4.8 0.00 0.00 0.00 88 1023.4
20260901220214 17 65 1.6 3.2 0.00 0.00 0.00 88 1023.6
20260901214728 17 101 0.0 0.0 0.00 0.00 0.00 86 1023.6
20260901213218 17 113 3.2 4.8 0.00 0.00 0.00 85 1023.4
20260901211721 17 67 3.2 6.4 0.00 0.00 0.00 84 1023.4
20260901210220 17 60 3.2 6.4 0.00 0.00 0.00 84 1023.4
20260901204720 17 80 3.2 6.4 0.00 0.00 0.00 85 1023.5
20260901203215 17 65 3.2 6.4 0.00 0.00 0.00 84 1023.4
20260901201716 17 77 3.2 8.0 0.00 0.00 0.00 84 1023.5
20260901200217 17 54 6.4 12.9 0.00 0.00 0.00 83 1023.4
20260901194718 17 69 4.8 8.0 0.00 0.00 0.00 83 1023.4
20260901193220 17 72 4.8 8.0 0.00 0.00 0.00 83 1023.2
20260901191713 18 64 8.0 9.7 0.00 0.00 0.00 82 1023.1
20260901190227 18 71 4.8 8.0 0.00 0.00 0.00 83 1023.0
20260901184715 17 66 4.8 8.0 0.00 0.00 0.00 84 1022.7
20260901183220 18 63 6.4 8.0 0.00 0.00 0.00 82 1022.7
20260901181724 17 63 6.4 8.0 0.00 0.00 0.00 84 1022.6
20260901180217 18 61 3.2 4.8 0.00 0.00 0.00 84 1022.5